Time,TemperatureF,DewpointF,PressureIn,WindDirection,WindDirectionDegrees,WindSpeedMPH,WindSpeedGustMPH,Humidity,HourlyPrecipIn,Conditions,Clouds,dailyrainin,SoftwareType,DateUTC
2013-04-08 00:04:00,0.8,-2.9,30.43,ENE,57,3.0,4.0,84,0.00,,,0.00,LWC V2.10 B1813,2013-04-08 08:04:00,
2013-04-08 00:09:00,0.9,-2.8,30.43,ENE,63,2.0,4.0,84,0.00,,,0.00,LWC V2.10 B1813,2013-04-08 08:09:00,
2013-04-08 00:14:00,0.9,-2.8,30.44,ENE,63,2.0,2.0,84,0.00,,,0.00,LWC V2.10 B1813,2013-04-08 08:14:00,
2013-04-08 00:19:00,0.9,-2.8,30.44,ENE,65,2.0,3.0,84,0.00,,,0.00,LWC V2.10 B1813,2013-04-08 08:19:00,
2013-04-08 00:24:00,0.9,-3.0,30.44,ENE,66,2.0,2.0,83,0.00,,,0.00,LWC V2.10 B1813,2013-04-08 08:24:00,
2013-04-08 00:29:00,0.8,-3.1,30.44,ENE,66,3.0,3.0,83,0.00,,,0.00,LWC V2.10 B1813,2013-04-08 08:29:00,
2013-04-08 00:34:00,0.8,-3.1,30.44,ENE,67,2.0,3.0,83,0.00,,,0.00,LWC V2.10 B1813,2013-04-08 08:34:00,
2013-04-08 00:39:00,0.8,-3.1,30.44,ENE,67,1.0,2.0,83,0.00,,,0.00,LWC V2.10 B1813,2013-04-08 08:39:00,
2013-04-08 00:44:00,0.8,-3.1,30.43,ENE,68,1.0,2.0,83,0.00,,,0.00,LWC V2.10 B1813,2013-04-08 08:44:00,
2013-04-08 00:49:00,0.7,-3.2,30.43,ENE,67,2.0,2.0,83,0.00,,,0.00,LWC V2.10 B1813,2013-04-08 08:49:00,
2013-04-08 00:54:00,0.5,-3.7,30.44,ENE,65,0.0,0.0,82,0.00,,,0.00,LWC V2.10 B1813,2013-04-08 08:54:00,
2013-04-08 00:59:00,0.2,-4.0,30.44,ENE,65,0.0,0.0,82,0.00,,,0.00,LWC V2.10 B1813,2013-04-08 08:59:00,
2013-04-08 01:04:00,-0.1,-4.5,30.44,ENE,64,0.0,0.0,81,0.00,,,0.00,LWC V2.10 B1813,2013-04-08 09:04:00,
2013-04-08 01:09:00,-0.7,-5.1,30.44,ENE,64,0.0,0.0,81,0.00,,,0.00,LWC V2.10 B1813,2013-04-08 09:09:00,
2013-04-08 01:14:00,-0.8,-4.7,30.44,ENE,64,0.0,1.0,83,0.00,,,0.00,LWC V2.10 B1813,2013-04-08 09:14:00,
2013-04-08 01:19:00,-0.8,-4.7,30.44,ENE,64,0.0,0.0,83,0.00,,,0.00,LWC V2.10 B1813,2013-04-08 09:19:00,
2013-04-08 01:24:00,-0.8,-4.7,30.44,ENE,64,1.0,2.0,83,0.00,,,0.00,LWC V2.10 B1813,2013-04-08 09:24:00,
2013-04-08 01:29:00,-0.8,-4.7,30.44,ENE,65,2.0,2.0,83,0.00,,,0.00,LWC V2.10 B1813,2013-04-08 09:29:00,
2013-04-08 01:34:00,-0.9,-4.8,30.45,ENE,65,3.0,3.0,83,0.00,,,0.00,LWC V2.10 B1813,2013-04-08 09:34:00,
2013-04-08 01:39:00,-0.7,-4.3,30.44,ENE,67,3.0,3.0,84,0.00,,,0.00,LWC V2.10 B1813,2013-04-08 09:39:00,
2013-04-08 01:44:00,-0.6,-4.5,30.44,ENE,63,3.0,4.0,83,0.00,,,0.00,LWC V2.10 B1813,2013-04-08 09:44:00,
2013-04-08 01:49:00,-0.6,-4.5,30.44,ENE,66,2.0,3.0,83,0.00,,,0.00,LWC V2.10 B1813,2013-04-08 09:49:00,
2013-04-08 01:54:00,-0.5,-4.2,30.45,ENE,68,4.0,4.0,84,0.00,,,0.00,LWC V2.10 B1813,2013-04-08 09:54:00,
2013-04-08 01:59:00,-0.3,-4.2,30.44,ENE,58,3.0,5.0,83,0.00,,,0.00,LWC V2.10 B1813,2013-04-08 09:59:00,
2013-04-08 02:04:00,-0.1,-4.0,30.44,NE,53,2.0,4.0,83,0.00,,,0.00,LWC V2.10 B1813,2013-04-08 10:04:00,
2013-04-08 02:09:00,-0.1,-4.0,30.44,NE,53,3.0,4.0,83,0.00,,,0.00,LWC V2.10 B1813,2013-04-08 10:09:00,
2013-04-08 02:14:00,-0.1,-4.3,30.44,NE,54,1.0,3.0,82,0.00,,,0.00,LWC V2.10 B1813,2013-04-08 10:14:00,
2013-04-08 02:19:00,-0.1,-4.0,30.44,NE,53,2.0,3.0,83,0.00,,,0.00,LWC V2.10 B1813,2013-04-08 10:19:00,
2013-04-08 02:24:00,-0.1,-4.3,30.44,NE,56,2.0,3.0,82,0.00,,,0.00,LWC V2.10 B1813,2013-04-08 10:24:00,
2013-04-08 02:29:00,-0.1,-4.0,30.45,ENE,75,2.0,2.0,83,0.00,,,0.00,LWC V2.10 B1813,2013-04-08 10:29:00,
2013-04-08 02:34:00,-0.2,-4.4,30.45,ENE,75,3.0,4.0,82,0.00,,,0.00,LWC V2.10 B1813,2013-04-08 10:34:00,
2013-04-08 02:39:00,-0.7,-4.8,30.45,ENE,69,3.0,4.0,82,0.00,,,0.00,LWC V2.10 B1813,2013-04-08 10:39:00,
2013-04-08 02:44:00,-0.6,-4.5,30.45,ENE,71,4.0,5.0,83,0.00,,,0.00,LWC V2.10 B1813,2013-04-08 10:44:00,
2013-04-08 02:49:00,-0.9,-5.3,30.45,ENE,67,4.0,7.0,81,0.00,,,0.00,LWC V2.10 B1813,2013-04-08 10:49:00,
2013-04-08 02:54:00,-1.0,-5.1,30.45,ENE,59,7.0,7.0,82,0.00,,,0.00,LWC V2.10 B1813,2013-04-08 10:54:00,
2013-04-08 02:59:00,-1.1,-5.2,30.45,ENE,57,3.0,7.0,82,0.00,,,0.00,LWC V2.10 B1813,2013-04-08 10:59:00,
2013-04-08 03:04:00,-1.2,-5.3,30.45,ENE,70,3.0,5.0,82,0.00,,,0.00,LWC V2.10 B1813,2013-04-08 11:04:00,
2013-04-08 03:09:00,-1.3,-5.7,30.45,ENE,74,4.0,6.0,81,0.00,,,0.00,LWC V2.10 B1813,2013-04-08 11:09:00,
2013-04-08 03:14:00,-1.4,-5.8,30.46,ENE,74,3.0,4.0,81,0.00,,,0.00,LWC V2.10 B1813,2013-04-08 11:14:00,
2013-04-08 03:19:00,-1.3,-5.4,30.45,ENE,76,3.0,4.0,82,0.00,,,0.00,LWC V2.10 B1813,2013-04-08 11:19:00,
2013-04-08 03:24:00,-1.3,-5.4,30.45,ENE,70,4.0,4.0,82,0.00,,,0.00,LWC V2.10 B1813,2013-04-08 11:24:00,
2013-04-08 03:29:00,-1.3,-5.4,30.45,ENE,71,3.0,3.0,82,0.00,,,0.00,LWC V2.10 B1813,2013-04-08 11:29:00,
2013-04-08 03:34:00,-1.2,-5.1,30.45,ENE,65,2.0,3.0,83,0.00,,,0.00,LWC V2.10 B1813,2013-04-08 11:34:00,
2013-04-08 03:39:00,-1.0,-4.9,30.45,ENE,65,1.0,2.0,83,0.00,,,0.00,LWC V2.10 B1813,2013-04-08 11:39:00,
2013-04-08 03:44:00,-1.0,-5.1,30.45,ENE,66,1.0,1.0,82,0.00,,,0.00,LWC V2.10 B1813,2013-04-08 11:44:00,
2013-04-08 03:49:00,-1.2,-5.3,30.44,ENE,67,0.0,1.0,82,0.00,,,0.00,LWC V2.10 B1813,2013-04-08 11:49:00,
2013-04-08 03:54:00,-1.4,-5.5,30.44,ENE,65,1.0,2.0,82,0.00,,,0.00,LWC V2.10 B1813,2013-04-08 11:54:00,
2013-04-08 03:59:00,-1.6,-5.7,30.44,ENE,65,0.0,0.0,82,0.00,,,0.00,LWC V2.10 B1813,2013-04-08 11:59:00,
2013-04-08 04:04:00,-1.9,-6.0,30.44,ENE,65,0.0,0.0,82,0.00,,,0.00,LWC V2.10 B1813,2013-04-08 12:04:00,
2013-04-08 04:09:00,-2.2,-6.3,30.44,ENE,67,1.0,3.0,82,0.00,,,0.00,LWC V2.10 B1813,2013-04-08 12:09:00,
2013-04-08 04:14:00,-2.1,-6.2,30.44,ENE,69,3.0,3.0,82,0.00,,,0.00,LWC V2.10 B1813,2013-04-08 12:14:00,
2013-04-08 04:19:00,-1.9,-5.8,30.44,ENE,67,2.0,4.0,83,0.00,,,0.00,LWC V2.10 B1813,2013-04-08 12:19:00,
2013-04-08 04:24:00,-1.8,-5.7,30.44,ENE,67,2.0,4.0,83,0.00,,,0.00,LWC V2.10 B1813,2013-04-08 12:24:00,
2013-04-08 04:29:00,-1.8,-5.7,30.44,ENE,60,3.0,4.0,83,0.00,,,0.00,LWC V2.10 B1813,2013-04-08 12:29:00,
2013-04-08 04:34:00,-1.9,-6.0,30.44,ENE,59,4.0,4.0,82,0.00,,,0.00,LWC V2.10 B1813,2013-04-08 12:34:00,
2013-04-08 04:39:00,-1.8,-5.7,30.44,ENE,68,4.0,4.0,83,0.00,,,0.00,LWC V2.10 B1813,2013-04-08 12:39:00,
2013-04-08 04:44:00,-1.4,-5.3,30.44,ENE,58,3.0,5.0,83,0.00,,,0.00,LWC V2.10 B1813,2013-04-08 12:44:00,
2013-04-08 04:49:00,-1.2,-5.1,30.43,ENE,59,2.0,5.0,83,0.00,,,0.00,LWC V2.10 B1813,2013-04-08 12:49:00,
2013-04-08 04:54:00,-1.2,-5.3,30.44,ENE,60,2.0,3.0,82,0.00,,,0.00,LWC V2.10 B1813,2013-04-08 12:54:00,
2013-04-08 04:59:00,-1.2,-5.3,30.43,ENE,68,3.0,4.0,82,0.00,,,0.00,LWC V2.10 B1813,2013-04-08 12:59:00,
2013-04-08 05:04:00,-1.2,-5.3,30.43,ENE,71,3.0,3.0,82,0.00,,,0.00,LWC V2.10 B1813,2013-04-08 13:04:00,
2013-04-08 05:09:00,-1.3,-5.4,30.43,ENE,60,3.0,4.0,82,0.00,,,0.00,LWC V2.10 B1813,2013-04-08 13:09:00,
2013-04-08 05:14:00,-1.4,-5.5,30.43,NE,55,2.0,2.0,82,0.00,,,0.00,LWC V2.10 B1813,2013-04-08 13:14:00,
2013-04-08 05:19:00,-1.5,-5.6,30.43,NE,55,2.0,2.0,82,0.00,,,0.00,LWC V2.10 B1813,2013-04-08 13:19:00,
2013-04-08 05:24:00,-1.6,-6.0,30.43,NE,55,0.0,1.0,81,0.00,,,0.00,LWC V2.10 B1813,2013-04-08 13:24:00,
2013-04-08 05:29:00,-1.8,-6.2,30.43,NE,55,0.0,0.0,81,0.00,,,0.00,LWC V2.10 B1813,2013-04-08 13:29:00,
2013-04-08 05:34:00,-2.0,-6.4,30.43,NE,55,1.0,2.0,81,0.00,,,0.00,LWC V2.10 B1813,2013-04-08 13:34:00,
2013-04-08 05:39:00,-2.1,-6.2,30.42,NE,55,1.0,3.0,82,0.00,,,0.00,LWC V2.10 B1813,2013-04-08 13:39:00,
2013-04-08 05:44:00,-2.2,-6.3,30.42,NE,55,1.0,2.0,82,0.00,,,0.00,LWC V2.10 B1813,2013-04-08 13:44:00,
2013-04-08 05:49:00,-2.3,-6.4,30.42,NE,55,2.0,3.0,82,0.00,,,0.00,LWC V2.10 B1813,2013-04-08 13:49:00,
2013-04-08 05:54:00,-2.4,-6.5,30.42,NE,56,2.0,3.0,82,0.00,,,0.00,LWC V2.10 B1813,2013-04-08 13:54:00,
2013-04-08 05:59:00,-2.4,-6.5,30.42,NE,55,2.0,2.0,82,0.00,,,0.00,LWC V2.10 B1813,2013-04-08 13:59:00,
2013-04-08 06:04:00,-2.3,-6.2,30.42,NE,55,1.0,2.0,83,0.00,,,0.00,LWC V2.10 B1813,2013-04-08 14:04:00,
2013-04-08 06:09:00,-2.2,-6.1,30.42,ENE,58,3.0,3.0,83,0.00,,,0.00,LWC V2.10 B1813,2013-04-08 14:09:00,
2013-04-08 06:14:00,-2.3,-6.4,30.42,ENE,59,2.0,2.0,82,0.00,,,0.00,LWC V2.10 B1813,2013-04-08 14:14:00,
2013-04-08 06:19:00,-2.4,-6.5,30.42,ENE,59,3.0,3.0,82,0.00,,,0.00,LWC V2.10 B1813,2013-04-08 14:19:00,
2013-04-08 06:24:00,-2.5,-6.6,30.42,ENE,59,2.0,2.0,82,0.00,,,0.00,LWC V2.10 B1813,2013-04-08 14:24:00,
2013-04-08 06:29:00,-2.6,-6.7,30.42,ENE,59,0.0,1.0,82,0.00,,,0.00,LWC V2.10 B1813,2013-04-08 14:29:00,
2013-04-08 06:34:00,-2.7,-6.8,30.42,NE,55,0.0,2.0,82,0.00,,,0.00,LWC V2.10 B1813,2013-04-08 14:34:00,
2013-04-08 06:39:00,-2.8,-6.9,30.42,NE,55,0.0,1.0,82,0.00,,,0.00,LWC V2.10 B1813,2013-04-08 14:39:00,
2013-04-08 06:44:00,-3.1,-7.4,30.42,NE,53,0.0,0.0,81,0.00,,,0.00,LWC V2.10 B1813,2013-04-08 14:44:00,
2013-04-08 06:49:00,-3.1,-7.2,30.41,NE,55,1.0,1.0,82,0.00,,,0.00,LWC V2.10 B1813,2013-04-08 14:49:00,
2013-04-08 06:54:00,-2.9,-6.8,30.41,NE,55,1.0,2.0,83,0.00,,,0.00,LWC V2.10 B1813,2013-04-08 14:54:00,
2013-04-08 06:59:00,-2.5,-6.4,30.41,NE,54,2.0,2.0,83,0.00,,,0.00,LWC V2.10 B1813,2013-04-08 14:59:00,
2013-04-08 07:04:00,-2.3,-6.2,30.41,NE,45,1.0,2.0,83,0.00,,,0.00,LWC V2.10 B1813,2013-04-08 15:04:00,
2013-04-08 07:09:00,-2.1,-6.0,30.41,NNE,26,1.0,3.0,83,0.00,,,0.00,LWC V2.10 B1813,2013-04-08 15:09:00,
2013-04-08 07:14:00,-2.0,-5.9,30.41,NNE,25,2.0,2.0,83,0.00,,,0.00,LWC V2.10 B1813,2013-04-08 15:14:00,
2013-04-08 07:19:00,-1.7,-5.6,30.41,NNE,22,1.0,2.0,83,0.00,,,0.00,LWC V2.10 B1813,2013-04-08 15:19:00,
2013-04-08 07:24:00,-1.4,-5.3,30.41,North,0,0.0,3.0,83,0.00,,,0.00,LWC V2.10 B1813,2013-04-08 15:24:00,
2013-04-08 07:29:00,-1.3,-5.4,30.41,NNW,342,1.0,3.0,82,0.00,,,0.00,LWC V2.10 B1813,2013-04-08 15:29:00,
2013-04-08 07:34:00,-1.2,-5.3,30.40,NNW,336,2.0,3.0,82,0.00,,,0.00,LWC V2.10 B1813,2013-04-08 15:34:00,
2013-04-08 07:39:00,-1.1,-5.2,30.40,NNW,335,2.0,3.0,82,0.00,,,0.00,LWC V2.10 B1813,2013-04-08 15:39:00,
2013-04-08 07:44:00,-1.2,-5.3,30.40,NNW,335,0.0,2.0,82,0.00,,,0.00,LWC V2.10 B1813,2013-04-08 15:44:00,
2013-04-08 07:49:00,-1.2,-5.3,30.40,NNW,333,0.0,1.0,82,0.00,,,0.00,LWC V2.10 B1813,2013-04-08 15:49:00,
2013-04-08 07:54:00,-1.0,-5.1,30.40,North,0,0.0,2.0,82,0.00,,,0.00,LWC V2.10 B1813,2013-04-08 15:54:00,
2013-04-08 07:59:00,-0.9,-4.8,30.40,East,93,2.0,5.0,83,0.00,,,0.00,LWC V2.10 B1813,2013-04-08 15:59:00,
2013-04-08 08:04:00,-1.1,-5.2,30.40,East,94,0.0,1.0,82,0.00,,,0.00,LWC V2.10 B1813,2013-04-08 16:04:00,
2013-04-08 08:09:00,-1.1,-5.2,30.40,East,92,0.0,0.0,82,0.00,,,0.00,LWC V2.10 B1813,2013-04-08 16:09:00,
2013-04-08 08:14:00,-1.1,-5.2,30.40,East,94,0.0,1.0,82,0.00,,,0.00,LWC V2.10 B1813,2013-04-08 16:14:00,
2013-04-08 08:19:00,-0.8,-4.7,30.40,East,93,0.0,1.0,83,0.00,,,0.00,LWC V2.10 B1813,2013-04-08 16:19:00,
2013-04-08 08:24:00,-0.3,-4.0,30.39,East,94,0.0,1.0,84,0.00,,,0.00,LWC V2.10 B1813,2013-04-08 16:24:00,
2013-04-08 08:29:00,0.1,-3.6,30.39,East,93,0.0,0.0,84,0.00,,,0.00,LWC V2.10 B1813,2013-04-08 16:29:00,
2013-04-08 08:34:00,0.6,-3.1,30.39,North,0,1.0,3.0,84,0.00,,,0.00,LWC V2.10 B1813,2013-04-08 16:34:00,
2013-04-08 08:39:00,1.1,-2.6,30.38,NNW,344,0.0,2.0,84,0.00,,,0.00,LWC V2.10 B1813,2013-04-08 16:39:00,
2013-04-08 08:44:00,1.3,-2.6,30.38,NNW,331,2.0,3.0,83,0.00,,,0.00,LWC V2.10 B1813,2013-04-08 16:44:00,
2013-04-08 08:49:00,1.5,-2.4,30.38,NNW,327,1.0,3.0,83,0.00,,,0.00,LWC V2.10 B1813,2013-04-08 16:49:00,
2013-04-08 08:54:00,1.7,-2.2,30.38,NNW,333,0.0,3.0,83,0.00,,,0.00,LWC V2.10 B1813,2013-04-08 16:54:00,
2013-04-08 08:59:00,1.8,-2.1,30.37,North,0,4.0,4.0,83,0.00,,,0.00,LWC V2.10 B1813,2013-04-08 16:59:00,
2013-04-08 09:04:00,2.0,-2.0,30.37,North,5,3.0,6.0,83,0.00,,,0.00,LWC V2.10 B1813,2013-04-08 17:04:00,
2013-04-08 09:09:00,2.2,-1.8,30.37,North,0,3.0,7.0,83,0.00,,,0.00,LWC V2.10 B1813,2013-04-08 17:09:00,
2013-04-08 09:14:00,2.4,-1.6,30.36,North,0,0.0,8.0,83,0.00,,,0.00,LWC V2.10 B1813,2013-04-08 17:14:00,
2013-04-08 09:19:00,2.6,-1.4,30.36,NW,319,0.0,3.0,83,0.00,,,0.00,LWC V2.10 B1813,2013-04-08 17:19:00,
2013-04-08 09:24:00,2.8,-1.2,30.36,NW,313,1.0,6.0,83,0.00,,,0.00,LWC V2.10 B1813,2013-04-08 17:24:00,
2013-04-08 09:29:00,2.8,-1.4,30.36,WNW,294,4.0,9.0,82,0.00,,,0.00,LWC V2.10 B1813,2013-04-08 17:29:00,
2013-04-08 09:34:00,2.9,-1.3,30.36,NNW,330,3.0,6.0,82,0.00,,,0.00,LWC V2.10 B1813,2013-04-08 17:34:00,
2013-04-08 09:39:00,3.1,-1.4,30.36,NW,315,2.0,7.0,81,0.00,,,0.00,LWC V2.10 B1813,2013-04-08 17:39:00,
2013-04-08 09:44:00,3.1,-1.6,30.36,North,11,2.0,6.0,80,0.00,,,0.00,LWC V2.10 B1813,2013-04-08 17:44:00,
2013-04-08 09:49:00,2.9,-2.1,30.36,NW,326,0.0,1.0,79,0.00,,,0.00,LWC V2.10 B1813,2013-04-08 17:49:00,
2013-04-08 09:54:00,2.8,-1.9,30.36,North,5,0.0,0.0,80,0.00,,,0.00,LWC V2.10 B1813,2013-04-08 17:54:00,
2013-04-08 09:59:00,2.7,-2.0,30.36,NW,323,1.0,1.0,80,0.00,,,0.00,LWC V2.10 B1813,2013-04-08 17:59:00,
2013-04-08 10:04:00,2.6,-2.1,30.36,NNE,30,0.0,3.0,80,0.00,,,0.00,LWC V2.10 B1813,2013-04-08 18:04:00,
2013-04-08 10:09:00,2.7,-1.8,30.35,NNW,330,5.0,5.0,81,0.00,,,0.00,LWC V2.10 B1813,2013-04-08 18:09:00,
2013-04-08 10:14:00,3.1,-1.1,30.35,NW,311,0.0,4.0,82,0.00,,,0.00,LWC V2.10 B1813,2013-04-08 18:14:00,
2013-04-08 10:19:00,3.5,-0.7,30.35,NW,319,2.0,4.0,82,0.00,,,0.00,LWC V2.10 B1813,2013-04-08 18:19:00,
2013-04-08 10:24:00,3.8,-0.4,30.35,North,0,6.0,6.0,82,0.00,,,0.00,LWC V2.10 B1813,2013-04-08 18:24:00,
2013-04-08 10:29:00,4.2,-0.3,30.35,NW,322,2.0,10.0,81,0.00,,,0.00,LWC V2.10 B1813,2013-04-08 18:29:00,
2013-04-08 10:34:00,4.4,-0.1,30.35,North,355,5.0,7.0,81,0.00,,,0.00,LWC V2.10 B1813,2013-04-08 18:34:00,
2013-04-08 10:39:00,4.7,0.2,30.34,NNW,348,1.0,5.0,81,0.00,,,0.00,LWC V2.10 B1813,2013-04-08 18:39:00,
2013-04-08 10:44:00,5.0,0.2,30.34,NNW,329,4.0,6.0,80,0.00,,,0.00,LWC V2.10 B1813,2013-04-08 18:44:00,
2013-04-08 10:49:00,5.1,0.3,30.34,North,0,2.0,8.0,80,0.00,,,0.00,LWC V2.10 B1813,2013-04-08 18:49:00,
2013-04-08 10:54:00,5.3,0.5,30.34,North,0,5.0,9.0,80,0.00,,,0.00,LWC V2.10 B1813,2013-04-08 18:54:00,
2013-04-08 10:59:00,5.4,0.6,30.34,WNW,298,1.0,7.0,80,0.00,,,0.00,LWC V2.10 B1813,2013-04-08 18:59:00,
2013-04-08 11:04:00,5.5,0.4,30.34,NW,317,4.0,8.0,79,0.00,,,0.00,LWC V2.10 B1813,2013-04-08 19:04:00,
2013-04-08 11:09:00,5.7,0.9,30.33,North,0,8.0,8.0,80,0.00,,,0.00,LWC V2.10 B1813,2013-04-08 19:09:00,
2013-04-08 11:14:00,5.9,1.1,30.33,North,9,0.0,6.0,80,0.00,,,0.00,LWC V2.10 B1813,2013-04-08 19:14:00,
2013-04-08 11:19:00,6.1,1.0,30.33,WNW,291,4.0,7.0,79,0.00,,,0.00,LWC V2.10 B1813,2013-04-08 19:19:00,
2013-04-08 11:24:00,6.2,1.1,30.33,NW,311,4.0,7.0,79,0.00,,,0.00,LWC V2.10 B1813,2013-04-08 19:24:00,
2013-04-08 11:29:00,6.5,1.1,30.33,NW,311,0.0,4.0,78,0.00,,,0.00,LWC V2.10 B1813,2013-04-08 19:29:00,
2013-04-08 11:34:00,6.7,1.3,30.33,North,0,0.0,3.0,78,0.00,,,0.00,LWC V2.10 B1813,2013-04-08 19:34:00,
2013-04-08 11:39:00,6.9,1.5,30.32,WNW,294,1.0,4.0,78,0.00,,,0.00,LWC V2.10 B1813,2013-04-08 19:39:00,
2013-04-08 11:44:00,7.1,1.7,30.32,WNW,286,0.0,6.0,78,0.00,,,0.00,LWC V2.10 B1813,2013-04-08 19:44:00,
2013-04-08 11:49:00,7.3,1.9,30.32,WNW,296,2.0,5.0,78,0.00,,,0.00,LWC V2.10 B1813,2013-04-08 19:49:00,
2013-04-08 11:54:00,7.3,1.6,30.31,WNW,297,4.0,7.0,77,0.00,,,0.00,LWC V2.10 B1813,2013-04-08 19:54:00,
2013-04-08 11:59:00,7.4,1.7,30.31,NW,318,0.0,9.0,77,0.00,,,0.00,LWC V2.10 B1813,2013-04-08 19:59:00,
2013-04-08 12:04:00,7.6,1.9,30.31,North,0,1.0,7.0,77,0.00,,,0.00,LWC V2.10 B1813,2013-04-08 20:04:00,
2013-04-08 12:09:00,7.7,2.0,30.31,NW,317,1.0,6.0,77,0.00,,,0.00,LWC V2.10 B1813,2013-04-08 20:09:00,
2013-04-08 12:14:00,7.9,1.9,30.31,WNW,300,1.0,6.0,76,0.00,,,0.00,LWC V2.10 B1813,2013-04-08 20:14:00,
2013-04-08 12:19:00,8.0,2.0,30.31,NW,311,0.0,3.0,76,0.00,,,0.00,LWC V2.10 B1813,2013-04-08 20:19:00,
2013-04-08 12:24:00,8.2,2.2,30.30,NW,306,0.0,3.0,76,0.00,,,0.00,LWC V2.10 B1813,2013-04-08 20:24:00,
2013-04-08 12:29:00,8.3,2.0,30.30,NNW,329,1.0,8.0,75,0.00,,,0.00,LWC V2.10 B1813,2013-04-08 20:29:00,
2013-04-08 12:34:00,8.4,2.4,30.30,North,0,1.0,4.0,76,0.00,,,0.00,LWC V2.10 B1813,2013-04-08 20:34:00,
2013-04-08 12:39:00,8.5,2.2,30.30,NW,313,0.0,7.0,75,0.00,,,0.00,LWC V2.10 B1813,2013-04-08 20:39:00,
2013-04-08 12:44:00,8.6,2.6,30.30,WNW,301,2.0,2.0,76,0.00,,,0.00,LWC V2.10 B1813,2013-04-08 20:44:00,
2013-04-08 12:49:00,9.0,3.0,30.30,North,0,1.0,3.0,76,0.00,,,0.00,LWC V2.10 B1813,2013-04-08 20:49:00,
2013-04-08 12:54:00,9.2,3.2,30.30,WNW,302,4.0,4.0,76,0.00,,,0.00,LWC V2.10 B1813,2013-04-08 20:54:00,
2013-04-08 12:59:00,9.3,3.0,30.30,NW,309,2.0,4.0,75,0.00,,,0.00,LWC V2.10 B1813,2013-04-08 20:59:00,
2013-04-08 13:04:00,9.4,3.4,30.29,WNW,298,5.0,5.0,76,0.00,,,0.00,LWC V2.10 B1813,2013-04-08 21:04:00,
2013-04-08 13:09:00,9.5,3.5,30.29,NW,322,3.0,5.0,76,0.00,,,0.00,LWC V2.10 B1813,2013-04-08 21:09:00,
2013-04-08 13:14:00,9.7,3.4,30.29,WNW,302,3.0,5.0,75,0.00,,,0.00,LWC V2.10 B1813,2013-04-08 21:14:00,
2013-04-08 13:19:00,9.9,3.9,30.28,NNW,341,1.0,6.0,76,0.00,,,0.00,LWC V2.10 B1813,2013-04-08 21:19:00,
2013-04-08 13:24:00,10.1,3.5,30.28,NNW,329,3.0,5.0,74,0.00,,,0.00,LWC V2.10 B1813,2013-04-08 21:24:00,
2013-04-08 13:29:00,10.0,3.4,30.28,NW,310,3.0,3.0,74,0.00,,,0.00,LWC V2.10 B1813,2013-04-08 21:29:00,
2013-04-08 13:34:00,10.1,3.8,30.28,NNW,339,4.0,8.0,75,0.00,,,0.00,LWC V2.10 B1813,2013-04-08 21:34:00,
2013-04-08 13:39:00,10.2,3.9,30.28,NW,321,4.0,5.0,75,0.00,,,0.00,LWC V2.10 B1813,2013-04-08 21:39:00,
2013-04-08 13:44:00,10.3,4.3,30.28,NW,306,2.0,5.0,76,0.00,,,0.00,LWC V2.10 B1813,2013-04-08 21:44:00,
2013-04-08 13:49:00,10.5,4.5,30.27,West,278,3.0,4.0,76,0.00,,,0.00,LWC V2.10 B1813,2013-04-08 21:49:00,
2013-04-08 13:54:00,10.9,4.6,30.27,NW,309,2.0,4.0,75,0.00,,,0.00,LWC V2.10 B1813,2013-04-08 21:54:00,
2013-04-08 13:59:00,11.3,4.9,30.27,WNW,290,2.0,5.0,75,0.00,,,0.00,LWC V2.10 B1813,2013-04-08 21:59:00,
2013-04-08 14:04:00,11.8,5.1,30.27,WNW,291,4.0,7.0,74,0.00,,,0.00,LWC V2.10 B1813,2013-04-08 22:04:00,
2013-04-08 14:09:00,12.1,5.1,30.27,NW,307,2.0,6.0,73,0.00,,,0.00,LWC V2.10 B1813,2013-04-08 22:09:00,
2013-04-08 14:14:00,12.3,5.3,30.26,NW,323,5.0,5.0,73,0.00,,,0.00,LWC V2.10 B1813,2013-04-08 22:14:00,
2013-04-08 14:19:00,12.2,4.9,30.26,NW,325,3.0,7.0,72,0.00,,,0.00,LWC V2.10 B1813,2013-04-08 22:19:00,
2013-04-08 14:24:00,12.3,4.7,30.26,WNW,290,5.0,7.0,71,0.00,,,0.00,LWC V2.10 B1813,2013-04-08 22:24:00,
2013-04-08 14:29:00,12.3,4.7,30.26,NW,304,4.0,6.0,71,0.00,,,0.00,LWC V2.10 B1813,2013-04-08 22:29:00,
2013-04-08 14:34:00,12.6,5.3,30.25,WNW,303,0.0,8.0,72,0.00,,,0.00,LWC V2.10 B1813,2013-04-08 22:34:00,
2013-04-08 14:39:00,13.0,5.4,30.25,NW,319,4.0,4.0,71,0.00,,,0.00,LWC V2.10 B1813,2013-04-08 22:39:00,
2013-04-08 14:44:00,13.0,5.4,30.24,NW,322,1.0,6.0,71,0.00,,,0.00,LWC V2.10 B1813,2013-04-08 22:44:00,
2013-04-08 14:49:00,13.0,5.4,30.24,NW,325,2.0,9.0,71,0.00,,,0.00,LWC V2.10 B1813,2013-04-08 22:49:00,
2013-04-08 14:54:00,12.8,5.5,30.24,WNW,290,3.0,9.0,72,0.00,,,0.00,LWC V2.10 B1813,2013-04-08 22:54:00,
2013-04-08 14:59:00,12.7,5.4,30.24,NNW,345,4.0,6.0,72,0.00,,,0.00,LWC V2.10 B1813,2013-04-08 22:59:00,
2013-04-08 15:04:00,12.7,5.7,30.24,WNW,290,2.0,10.0,73,0.00,,,0.00,LWC V2.10 B1813,2013-04-08 23:04:00,
2013-04-08 15:09:00,13.1,6.1,30.24,North,0,2.0,5.0,73,0.00,,,0.00,LWC V2.10 B1813,2013-04-08 23:09:00,
2013-04-08 15:14:00,13.3,5.7,30.23,North,0,1.0,3.0,71,0.00,,,0.00,LWC V2.10 B1813,2013-04-08 23:14:00,
2013-04-08 15:19:00,13.7,6.7,30.24,NNW,331,0.0,4.0,73,0.00,,,0.00,LWC V2.10 B1813,2013-04-08 23:19:00,
2013-04-08 15:24:00,13.8,6.2,30.23,NNW,331,0.0,5.0,71,0.00,,,0.00,LWC V2.10 B1813,2013-04-08 23:24:00,
2013-04-08 15:29:00,13.6,6.3,30.23,North,0,5.0,7.0,72,0.00,,,0.00,LWC V2.10 B1813,2013-04-08 23:29:00,
2013-04-08 15:34:00,13.8,6.5,30.23,NNW,345,2.0,5.0,72,0.00,,,0.00,LWC V2.10 B1813,2013-04-08 23:34:00,
2013-04-08 15:39:00,14.0,6.0,30.22,ENE,69,3.0,6.0,70,0.00,,,0.00,LWC V2.10 B1813,2013-04-08 23:39:00,
2013-04-08 15:44:00,13.7,6.1,30.22,NNW,335,2.0,6.0,71,0.00,,,0.00,LWC V2.10 B1813,2013-04-08 23:44:00,
2013-04-08 15:49:00,13.2,5.0,30.22,NE,36,2.0,4.0,69,0.00,,,0.00,LWC V2.10 B1813,2013-04-08 23:49:00,
2013-04-08 15:54:00,12.9,5.6,30.22,NNW,341,5.0,6.0,72,0.00,,,0.00,LWC V2.10 B1813,2013-04-08 23:54:00,
2013-04-08 15:59:00,13.4,6.4,30.21,NNW,343,1.0,1.0,73,0.00,,,0.00,LWC V2.10 B1813,2013-04-08 23:59:00,
2013-04-08 16:04:00,13.5,6.5,30.21,NNE,32,1.0,3.0,73,0.00,,,0.00,LWC V2.10 B1813,2013-04-09 00:04:00,
2013-04-08 16:09:00,13.8,6.2,30.21,NW,319,0.0,1.0,71,0.00,,,0.00,LWC V2.10 B1813,2013-04-09 00:09:00,
2013-04-08 16:14:00,14.0,6.7,30.21,WNW,282,0.0,1.0,72,0.00,,,0.00,LWC V2.10 B1813,2013-04-09 00:14:00,
2013-04-08 16:19:00,14.2,6.9,30.21,WNW,302,0.0,3.0,72,0.00,,,0.00,LWC V2.10 B1813,2013-04-09 00:19:00,
2013-04-08 16:24:00,14.3,6.6,30.20,NNW,346,0.0,0.0,71,0.00,,,0.00,LWC V2.10 B1813,2013-04-09 00:24:00,
2013-04-08 16:29:00,14.6,6.9,30.20,WNW,288,1.0,3.0,71,0.00,,,0.00,LWC V2.10 B1813,2013-04-09 00:29:00,
2013-04-08 16:34:00,14.8,6.8,30.20,North,0,0.0,2.0,70,0.00,,,0.00,LWC V2.10 B1813,2013-04-09 00:34:00,
2013-04-08 16:39:00,14.5,6.2,30.19,North,0,1.0,1.0,69,0.00,,,0.00,LWC V2.10 B1813,2013-04-09 00:39:00,
2013-04-08 16:44:00,13.8,5.9,30.19,North,0,2.0,2.0,70,0.00,,,0.00,LWC V2.10 B1813,2013-04-09 00:44:00,
2013-04-08 16:49:00,13.9,7.5,30.19,North,0,4.0,5.0,75,0.00,,,0.00,LWC V2.10 B1813,2013-04-09 00:49:00,
2013-04-08 16:54:00,13.9,6.6,30.19,NE,47,3.0,3.0,72,0.00,,,0.00,LWC V2.10 B1813,2013-04-09 00:54:00,
2013-04-08 16:59:00,13.7,6.7,30.18,NNE,17,0.0,2.0,73,0.00,,,0.00,LWC V2.10 B1813,2013-04-09 00:59:00,
2013-04-08 17:04:00,13.7,6.7,30.18,North,0,2.0,3.0,73,0.00,,,0.00,LWC V2.10 B1813,2013-04-09 01:04:00,
2013-04-08 17:09:00,13.6,6.6,30.18,NNW,337,0.0,2.0,73,0.00,,,0.00,LWC V2.10 B1813,2013-04-09 01:09:00,
2013-04-08 17:14:00,13.2,6.8,30.18,SSE,150,2.0,3.0,75,0.00,,,0.00,LWC V2.10 B1813,2013-04-09 01:14:00,
2013-04-08 17:19:00,12.6,6.8,30.17,SE,139,4.0,5.0,77,0.00,,,0.00,LWC V2.10 B1813,2013-04-09 01:19:00,
2013-04-08 17:24:00,12.0,6.8,30.17,ESE,114,2.0,4.0,79,0.00,,,0.00,LWC V2.10 B1813,2013-04-09 01:24:00,
2013-04-08 17:29:00,11.5,6.6,30.17,SE,132,0.0,3.0,80,0.00,,,0.00,LWC V2.10 B1813,2013-04-09 01:29:00,
2013-04-08 17:34:00,11.4,6.7,30.17,ESE,121,1.0,2.0,81,0.00,,,0.00,LWC V2.10 B1813,2013-04-09 01:34:00,
2013-04-08 17:39:00,11.3,6.9,30.16,ESE,121,2.0,2.0,82,0.00,,,0.00,LWC V2.10 B1813,2013-04-09 01:39:00,
2013-04-08 17:44:00,11.3,6.6,30.16,SE,138,1.0,3.0,81,0.00,,,0.00,LWC V2.10 B1813,2013-04-09 01:44:00,
2013-04-08 17:49:00,11.4,7.3,30.16,SE,136,2.0,3.0,83,0.00,,,0.00,LWC V2.10 B1813,2013-04-09 01:49:00,
2013-04-08 17:54:00,11.4,7.3,30.16,SE,143,3.0,4.0,83,0.00,,,0.00,LWC V2.10 B1813,2013-04-09 01:54:00,
2013-04-08 17:59:00,11.2,7.1,30.16,SE,134,4.0,5.0,83,0.00,,,0.00,LWC V2.10 B1813,2013-04-09 01:59:00,
2013-04-08 18:04:00,10.8,6.7,30.16,SE,145,4.0,6.0,83,0.00,,,0.00,LWC V2.10 B1813,2013-04-09 02:04:00,
2013-04-08 18:09:00,10.6,6.7,30.15,SE,139,4.0,5.0,84,0.00,,,0.00,LWC V2.10 B1813,2013-04-09 02:09:00,
2013-04-08 18:14:00,10.5,6.6,30.15,SE,139,4.0,5.0,84,0.00,,,0.00,LWC V2.10 B1813,2013-04-09 02:14:00,
2013-04-08 18:19:00,10.4,6.5,30.14,SE,145,4.0,5.0,84,0.00,,,0.00,LWC V2.10 B1813,2013-04-09 02:19:00,
2013-04-08 18:24:00,10.4,6.8,30.14,SSE,156,2.0,3.0,85,0.00,,,0.00,LWC V2.10 B1813,2013-04-09 02:24:00,
2013-04-08 18:29:00,10.3,6.4,30.14,SE,133,2.0,5.0,84,0.00,,,0.00,LWC V2.10 B1813,2013-04-09 02:29:00,
2013-04-08 18:34:00,10.2,6.3,30.14,SE,143,4.0,6.0,84,0.00,,,0.00,LWC V2.10 B1813,2013-04-09 02:34:00,
2013-04-08 18:39:00,10.1,6.2,30.14,SE,128,2.0,4.0,84,0.00,,,0.00,LWC V2.10 B1813,2013-04-09 02:39:00,
2013-04-08 18:44:00,9.9,6.3,30.13,SSE,147,3.0,5.0,85,0.00,,,0.00,LWC V2.10 B1813,2013-04-09 02:44:00,
2013-04-08 18:49:00,9.9,6.3,30.13,SE,146,4.0,6.0,85,0.00,,,0.00,LWC V2.10 B1813,2013-04-09 02:49:00,
2013-04-08 18:54:00,9.9,6.3,30.12,SE,137,4.0,5.0,85,0.00,,,0.00,LWC V2.10 B1813,2013-04-09 02:54:00,
2013-04-08 18:59:00,9.8,6.2,30.12,SE,136,2.0,5.0,85,0.00,,,0.00,LWC V2.10 B1813,2013-04-09 02:59:00,
2013-04-08 19:04:00,9.7,6.1,30.12,SE,126,2.0,4.0,85,0.00,,,0.00,LWC V2.10 B1813,2013-04-09 03:04:00,
2013-04-08 19:09:00,9.7,6.1,30.12,SE,140,1.0,1.0,85,0.00,,,0.00,LWC V2.10 B1813,2013-04-09 03:09:00,
2013-04-08 19:14:00,9.9,6.3,30.12,SE,130,3.0,4.0,85,0.00,,,0.00,LWC V2.10 B1813,2013-04-09 03:14:00,
2013-04-08 19:19:00,9.8,6.2,30.11,SE,131,2.0,4.0,85,0.00,,,0.00,LWC V2.10 B1813,2013-04-09 03:19:00,
2013-04-08 19:24:00,9.7,6.1,30.11,SE,132,2.0,5.0,85,0.00,,,0.00,LWC V2.10 B1813,2013-04-09 03:24:00,
2013-04-08 19:29:00,9.4,5.8,30.11,ESE,118,3.0,4.0,85,0.00,,,0.00,LWC V2.10 B1813,2013-04-09 03:29:00,
2013-04-08 19:34:00,9.2,5.6,30.10,SE,138,4.0,4.0,85,0.00,,,0.00,LWC V2.10 B1813,2013-04-09 03:34:00,
2013-04-08 19:39:00,9.0,5.4,30.10,SE,134,4.0,4.0,85,0.00,,,0.00,LWC V2.10 B1813,2013-04-09 03:39:00,
2013-04-08 19:44:00,9.0,5.4,30.10,SE,141,1.0,3.0,85,0.00,,,0.00,LWC V2.10 B1813,2013-04-09 03:44:00,
2013-04-08 19:49:00,9.0,5.4,30.10,SE,142,1.0,2.0,85,0.00,,,0.00,LWC V2.10 B1813,2013-04-09 03:49:00,
2013-04-08 19:54:00,9.0,5.4,30.09,SE,132,2.0,5.0,85,0.00,,,0.00,LWC V2.10 B1813,2013-04-09 03:54:00,
2013-04-08 19:59:00,8.9,5.3,30.09,SE,126,3.0,4.0,85,0.00,,,0.00,LWC V2.10 B1813,2013-04-09 03:59:00,
2013-04-08 20:00:00,8.9,5.3,30.09,SE,126,1.0,3.0,85,0.00,,,0.00,LWC V2.10 B1813,2013-04-09 04:00:00,
2013-04-08 20:01:00,8.9,5.3,30.10,SE,132,0.0,4.0,85,0.00,,,0.00,LWC V2.10 B1813,2013-04-09 04:01:00,
2013-04-08 20:06:00,8.8,5.2,30.09,SE,126,3.0,4.0,85,0.00,,,0.00,LWC V2.10 B1813,2013-04-09 04:06:00,
2013-04-08 20:11:00,8.6,5.0,30.09,ESE,118,4.0,4.0,85,0.00,,,0.00,LWC V2.10 B1813,2013-04-09 04:11:00,
2013-04-08 20:14:00,8.5,4.9,30.09,SE,126,2.0,4.0,85,0.00,,,0.00,LWC V2.10 B1813,2013-04-09 04:14:00,
2013-04-08 20:19:00,8.3,4.7,30.08,ESE,123,1.0,2.0,85,0.00,,,0.00,LWC V2.10 B1813,2013-04-09 04:19:00,
2013-04-08 20:24:00,8.2,4.6,30.08,SE,128,1.0,4.0,85,0.00,,,0.00,LWC V2.10 B1813,2013-04-09 04:24:00,
2013-04-08 20:29:00,8.1,4.5,30.08,SE,128,2.0,3.0,85,0.00,,,0.00,LWC V2.10 B1813,2013-04-09 04:29:00,
2013-04-08 20:34:00,8.1,4.5,30.08,SE,129,3.0,3.0,85,0.00,,,0.00,LWC V2.10 B1813,2013-04-09 04:34:00,
2013-04-08 20:39:00,8.0,4.4,30.08,SE,130,0.0,4.0,85,0.00,,,0.00,LWC V2.10 B1813,2013-04-09 04:39:00,
2013-04-08 20:44:00,7.9,4.3,30.08,SE,134,3.0,4.0,85,0.00,,,0.00,LWC V2.10 B1813,2013-04-09 04:44:00,
2013-04-08 20:49:00,7.8,4.2,30.07,SE,133,1.0,3.0,85,0.00,,,0.00,LWC V2.10 B1813,2013-04-09 04:49:00,
2013-04-08 20:54:00,7.7,4.2,30.07,SE,132,2.0,3.0,85,0.00,,,0.00,LWC V2.10 B1813,2013-04-09 04:54:00,
2013-04-08 20:59:00,7.6,4.1,30.07,SE,125,1.0,3.0,85,0.00,,,0.00,LWC V2.10 B1813,2013-04-09 04:59:00,
2013-04-08 21:04:00,7.5,4.0,30.07,SE,126,2.0,3.0,85,0.00,,,0.00,LWC V2.10 B1813,2013-04-09 05:04:00,
2013-04-08 21:09:00,7.5,4.0,30.07,SE,125,2.0,3.0,85,0.00,,,0.00,LWC V2.10 B1813,2013-04-09 05:09:00,
2013-04-08 21:14:00,7.4,3.9,30.06,ESE,117,2.0,3.0,85,0.00,,,0.00,LWC V2.10 B1813,2013-04-09 05:14:00,
2013-04-08 21:19:00,7.3,3.8,30.06,SE,128,2.0,3.0,85,0.00,,,0.00,LWC V2.10 B1813,2013-04-09 05:19:00,
2013-04-08 21:24:00,7.2,3.7,30.06,SE,126,1.0,3.0,85,0.00,,,0.00,LWC V2.10 B1813,2013-04-09 05:24:00,
2013-04-08 21:29:00,7.1,3.6,30.05,SE,126,1.0,2.0,85,0.00,,,0.00,LWC V2.10 B1813,2013-04-09 05:29:00,
2013-04-08 21:34:00,7.1,3.6,30.05,SE,126,1.0,2.0,85,0.00,,,0.00,LWC V2.10 B1813,2013-04-09 05:34:00,
2013-04-08 21:39:00,6.9,3.4,30.05,SE,125,1.0,2.0,85,0.00,,,0.00,LWC V2.10 B1813,2013-04-09 05:39:00,
2013-04-08 21:44:00,6.9,3.4,30.05,SE,126,1.0,2.0,85,0.00,,,0.00,LWC V2.10 B1813,2013-04-09 05:44:00,
2013-04-08 21:49:00,6.9,3.4,30.05,SE,125,0.0,2.0,85,0.00,,,0.00,LWC V2.10 B1813,2013-04-09 05:49:00,
2013-04-08 21:54:00,6.9,3.4,30.04,SE,126,0.0,1.0,85,0.00,,,0.00,LWC V2.10 B1813,2013-04-09 05:54:00,
2013-04-08 21:59:00,6.9,3.4,30.04,SE,127,0.0,0.0,85,0.00,,,0.00,LWC V2.10 B1813,2013-04-09 05:59:00,
2013-04-08 22:04:00,6.8,3.3,30.04,SE,126,0.0,1.0,85,0.00,,,0.00,LWC V2.10 B1813,2013-04-09 06:04:00,
2013-04-08 22:09:00,6.9,3.4,30.03,SE,126,1.0,2.0,85,0.00,,,0.00,LWC V2.10 B1813,2013-04-09 06:09:00,
2013-04-08 22:14:00,6.8,3.3,30.03,SE,125,0.0,2.0,85,0.00,,,0.00,LWC V2.10 B1813,2013-04-09 06:14:00,
2013-04-08 22:19:00,6.8,3.3,30.03,SE,126,1.0,2.0,85,0.00,,,0.00,LWC V2.10 B1813,2013-04-09 06:19:00,
2013-04-08 22:24:00,6.8,3.3,30.03,SE,126,0.0,0.0,85,0.00,,,0.00,LWC V2.10 B1813,2013-04-09 06:24:00,
2013-04-08 22:29:00,6.8,3.3,30.02,SE,126,0.0,0.0,85,0.00,,,0.00,LWC V2.10 B1813,2013-04-09 06:29:00,
2013-04-08 22:34:00,6.8,3.3,30.02,SE,126,0.0,0.0,85,0.00,,,0.00,LWC V2.10 B1813,2013-04-09 06:34:00,
2013-04-08 22:39:00,6.8,3.3,30.02,SE,127,0.0,0.0,85,0.00,,,0.00,LWC V2.10 B1813,2013-04-09 06:39:00,
2013-04-08 22:44:00,6.8,3.3,30.02,SE,126,0.0,0.0,85,0.00,,,0.00,LWC V2.10 B1813,2013-04-09 06:44:00,
2013-04-08 22:49:00,6.8,3.3,30.01,SE,125,0.0,0.0,85,0.00,,,0.00,LWC V2.10 B1813,2013-04-09 06:49:00,
2013-04-08 22:54:00,6.9,3.4,30.01,SE,126,0.0,0.0,85,0.00,,,0.00,LWC V2.10 B1813,2013-04-09 06:54:00,
2013-04-08 22:59:00,6.9,3.4,30.01,SE,126,0.0,0.0,85,0.00,,,0.00,LWC V2.10 B1813,2013-04-09 06:59:00,
2013-04-08 23:04:00,6.8,3.3,30.01,SE,125,0.0,0.0,85,0.00,,,0.00,LWC V2.10 B1813,2013-04-09 07:04:00,
2013-04-08 23:09:00,6.8,3.3,30.01,SE,126,0.0,0.0,85,0.00,,,0.00,LWC V2.10 B1813,2013-04-09 07:09:00,
2013-04-08 23:14:00,6.8,3.3,30.00,SE,126,0.0,0.0,85,0.00,,,0.00,LWC V2.10 B1813,2013-04-09 07:14:00,
2013-04-08 23:19:00,6.7,3.2,30.00,SE,127,0.0,0.0,85,0.00,,,0.00,LWC V2.10 B1813,2013-04-09 07:19:00,
2013-04-08 23:24:00,6.7,3.2,30.00,SE,126,0.0,0.0,85,0.00,,,0.00,LWC V2.10 B1813,2013-04-09 07:24:00,
2013-04-08 23:29:00,6.7,3.2,29.99,SE,125,0.0,0.0,85,0.00,,,0.00,LWC V2.10 B1813,2013-04-09 07:29:00,
2013-04-08 23:34:00,6.7,3.2,29.99,SE,126,0.0,0.0,85,0.00,,,0.00,LWC V2.10 B1813,2013-04-09 07:34:00,
2013-04-08 23:39:00,6.7,3.2,29.99,SE,126,0.0,0.0,85,0.00,,,0.00,LWC V2.10 B1813,2013-04-09 07:39:00,
2013-04-08 23:44:00,6.6,3.1,29.99,SE,125,0.0,0.0,85,0.00,,,0.00,LWC V2.10 B1813,2013-04-09 07:44:00,
2013-04-08 23:49:00,6.7,3.2,29.99,SE,126,0.0,0.0,85,0.00,,,0.00,LWC V2.10 B1813,2013-04-09 07:49:00,
2013-04-08 23:54:00,6.6,3.1,29.99,SE,126,0.0,1.0,85,0.00,,,0.00,LWC V2.10 B1813,2013-04-09 07:54:00,
2013-04-08 23:59:00,6.6,3.1,29.98,SE,125,0.0,0.0,85,0.00,,,0.00,LWC V2.10 B1813,2013-04-09 07:59:00,